Tracking 29059 objects as of 19-Jun-2024
HD Live streaming from Space Station
objects crossing your sky now

OBJECT P

Track OBJECT P now!
10-day predictions


NORAD ID: 56945
Int'l Code: 2023-084P
Perigee: 460.8 km
Apogee: 465.9 km
Inclination: 97.5 °
Period: 93.7 minutes
Semi major axis: 6834 km
RCS: Unknown
Launch date: June 12, 2023
Source: (TBD)
Launch site: AIR FORCE WESTERN TEST RANGE (AFWTR)
Your satellite tracking list
Your tracking list is empty




NASA's NSSDC Master Catalog

Two Line Element Set (TLE):
1 56945U 23084P   24170.88337337  .00044009  00000-0  12286-2 0  9990
2 56945  97.5332 292.4046 0003674 343.6104  16.5020 15.36589094 56586
Source of the keplerian elements: AFSPC